Flag for Mozambique Weather past 2 weeks in Beira, Mozambique

Now
68 °F

Fog.


Feels Like: 68 °F
Forecast: 67 / 87 °F
Wind: 5 mph from Northwest

Location: Beira Airport

Current Time: Sep 17, 2014 at 2:31:47 AM

Latest Report: Sep 17, 2014 at 2:00 AM


Visibility: 0 mi

Pressure: 29.98 "Hg

Humidity: 94%

Dew point: 66 °F

Location of BeiraLocation

Historic Weather in Beira — Graph

°F

Beira temperature yesterday

Maximum temperature yesterday: 82 °F (at 11:00 AM)
Minimum temperature yesterday: 68 °F (at 5:00 AM)
Average temperature yesterday: 75 °F

Past Weeks' High & Low Weather Summary

 TemperatureHumidityPressure
High84 °F (Sep 13, 12:00 PM)100% (Sep 4, 4:00 AM)30.21 "Hg (Sep 4, 4:00 AM)
Low64 °F (Sep 2, 7:00 AM)57% (Sep 2, 12:00 PM)29.95 "Hg (Sep 10, 3:00 PM)
Average74 °F82%30.09 "Hg
* Reported Sep 2 1:00 AM — Sep 17 1:00 AM, Beira, Weather by CustomWeather, © 2014

Note: Actual official high and low records may vary slightly from our data, if they occured in-between our weather recording intervals... More about our weather records

Advertising

Beira weather history for previous 24 hours

 ConditionsComfort  
Time TempWeatherWind HumidityBarometerVisibility
1:00 AM
Sep 17
68 °FFog.5 mph94%29.98 "Hg0 mi
11:00 PM
Sep 16
70 °FFog.6 mph94%30.01 "Hg0 mi
10:00 PM72 °FClear.6 mph94%30.01 "Hg10 mi
8:00 PM72 °FClear.7 mph94%30.01 "Hg10 mi
6:00 PM77 °FPassing clouds.6 mph79%29.98 "HgN/A
5:00 PM79 °FSunny.10 mph79%29.98 "Hg10 mi
3:00 PM81 °FSunny.10 mph70%29.98 "Hg10 mi
2:00 PM81 °FPassing clouds.9 mph70%30.01 "HgN/A
12:00 PM82 °FPassing clouds.9 mph62%30.04 "HgN/A
11:00 AM82 °FPassing clouds.3 mph62%30.09 "HgN/A
9:00 AM77 °FScattered clouds.6 mph74%30.09 "HgN/A
8:00 AM70 °FPartly sunny.6 mph83%30.09 "HgN/A
7:00 AM68 °FPartly sunny.3 mph94%30.09 "HgN/A
5:00 AM68 °FPassing clouds.1 mph100%30.04 "HgN/A
4:00 AM70 °FPassing clouds.5 mph94%30.04 "HgN/A
2:00 AM73 °FPassing clouds.7 mph83%30.04 "HgN/A
Weather by CustomWeather, © 2014

See weather overviewHow to use our weather pages